FW6707 Weather Reports


time (UTC)temp
C
wind
direction
speed
KPH
gust
KPH
rain 1hr
cm
rain 24hr
cm
rain mn
cm
humidity
%
barometer
mb
20260508043058 7 65 0.0 0.0 0.00 2.16 0.00 97 1001.5
20260508041546 7 65 0.0 0.0 0.00 2.16 0.00 97 1001.4
20260508040043 7 65 0.0 0.0 0.00 2.16 0.00 96 1001.6
20260508034542 7 65 0.0 1.6 0.00 2.16 0.00 96 1001.6
20260508033039 7 65 1.6 4.8 0.00 2.16 0.00 96 1001.8
20260508031536 7 65 3.2 9.7 0.00 2.16 0.00 95 1002.0
20260508030047 7 70 1.6 12.9 0.00 2.16 2.16 94 1002.0
20260508024533 8 20 1.6 9.7 0.00 2.16 2.16 92 1002.3
20260508023025 10 85 19.3 25.7 0.00 2.16 2.16 89 1001.9
20260508021523 10 213 3.2 8.0 0.00 2.16 2.16 91 1001.8
20260508020021 11 242 6.4 11.3 0.00 2.16 2.16 91 1001.8
20260508014519 11 232 4.8 17.7 0.00 2.16 2.16 91 1001.5
20260508013018 11 216 11.3 16.1 0.00 2.16 2.16 92 1001.4
20260508011515 11 224 8.0 14.5 0.00 2.16 2.16 93 1001.0
20260508010022 11 239 8.0 17.7 0.00 2.16 2.16 93 1001.2
20260508004514 11 223 3.2 12.9 0.00 2.16 2.16 94 1001.3
20260508003012 11 250 6.4 11.3 0.00 2.16 2.16 93 1001.4
20260508001511 11 267 3.2 12.9 0.00 2.16 2.16 94 1001.3
20260508000010 11 265 1.6 9.7 0.00 2.16 2.16 94 1001.4
20260507234509 11 265 0.0 4.8 0.00 2.16 2.16 93 1001.3
20260507233008 12 250 1.6 11.3 0.00 2.16 2.16 92 1001.3
20260507231514 12 262 8.0 12.9 0.00 2.16 2.16 92 1001.4
20260507230006 12 228 1.6 11.3 0.00 2.16 2.16 92 1001.5
20260507224506 12 292 4.8 11.3 0.00 2.16 2.16 92 1001.4
20260507223008 12 280 3.2 12.9 0.00 2.16 2.16 92 1001.2
20260507221507 12 247 6.4 20.9 0.00 2.16 2.16 92 1001.5
20260507220003 12 271 4.8 12.9 0.00 2.16 2.16 93 1001.8
20260507214503 12 215 3.2 14.5 0.03 2.16 2.16 95 1001.7
20260507213002 12 243 1.6 17.7 0.08 2.16 2.16 94 1001.5
20260507211501 12 206 12.9 22.5 0.25 2.16 2.16 94 1002.3
20260507210100 12 253 9.7 30.6 0.43 2.16 2.16 94 1001.2
20260507204601 12 302 8.0 20.9 0.56 2.13 2.13 94 1001.5
20260507203055 12 242 6.4 25.7 0.71 2.08 2.08 94 1001.9
20260507201601 12 277 8.0 27.4 0.71 1.91 1.91 94 1002.3
20260507200053 12 219 3.2 11.3 0.71 1.73 1.73 94 1002.7
20260507194646 12 248 8.0 19.3 0.71 1.57 1.57 94 1003.3
20260507193042 12 253 6.4 16.1 0.81 1.37 1.37 94 1003.7
20260507191547 13 230 9.7 17.7 0.84 1.17 1.17 94 1003.8
20260507190037 13 247 1.6 14.5 0.79 1.02 1.02 93 1003.8
20260507184548 13 251 6.4 22.5 0.64 0.86 0.86 93 1004.1
20260507183042 13 267 8.0 17.7 0.30 0.51 0.51 93 1004.3
20260507181536 14 186 3.2 19.3 0.10 0.33 0.33 92 1004.3
20260507180034 14 267 9.7 20.9 0.03 0.23 0.23 90 1003.9
20260507174535 15 251 9.7 27.4 0.00 0.23 0.23 87 1004.0
20260507173034 15 124 6.4 17.7 0.00 0.23 0.23 88 1003.8
20260507171531 15 236 4.8 16.1 0.00 0.23 0.23 86 1004.3
20260507170028 16 122 9.7 22.5 0.00 0.23 0.23 85 1004.4
20260507164526 15 109 4.8 22.5 0.00 0.23 0.23 85 1004.3
20260507163028 16 203 12.9 27.4 0.00 0.23 0.23 84 1004.8
20260507161524 16 181 6.4 17.7 0.00 0.23 0.23 84 1005.1
20260507160032 16 96 8.0 22.5 0.00 0.23 0.23 84 1005.4
20260507154546 16 329 8.0 24.1 0.00 0.23 0.23 84 1005.8
20260507153020 16 235 11.3 29.0 0.00 0.23 0.23 85 1005.9
20260507151520 15 315 11.3 27.4 0.00 0.23 0.23 85 1006.3
20260507150019 15 192 8.0 25.7 0.00 0.23 0.23 86 1006.7
20260507144515 15 128 4.8 30.6 0.00 0.23 0.23 86 1006.8
20260507143031 15 184 4.8 41.8 0.00 0.23 0.23 87 1007.5
20260507141513 15 119 4.8 19.3 0.00 0.23 0.23 87 1007.7
20260507140012 15 234 11.3 27.4 0.00 0.23 0.23 85 1008.0
20260507134512 16 351 8.0 19.3 0.00 0.23 0.23 84 1007.7
20260507133009 16 249 8.0 27.4 0.00 0.23 0.23 86 1008.1
20260507131510 16 268 12.9 27.4 0.00 0.23 0.23 86 1008.4
20260507130003 15 48 3.2 20.9 0.03 0.23 0.23 90 1008.4
20260507124501 14 240 9.7 29.0 0.08 0.23 0.23 91 1008.5
20260507123124 13 45 8.0 19.3 0.18 0.23 0.23 91 1008.6
20260507121559 13 258 4.8 40.2 0.23 0.23 0.23 92 1009.2
20260507120057 13 147 6.4 25.7 0.20 0.20 0.20 92 1009.6
20260507114558 13 52 8.0 25.7 0.15 0.15 0.15 92 1010.1
20260507113055 13 256 14.5 29.0 0.05 0.05 0.05 91 1010.4
20260507111554 14 356 6.4 22.5 0.00 0.00 0.00 89 1010.6
20260507110055 14 201 19.3 37.0 0.00 0.00 0.00 88 1010.1
20260507104558 14 143 24.1 45.1 0.00 0.00 0.00 89 1010.2
20260507103051 14 59 8.0 12.9 0.00 0.00 0.00 89 1010.6
20260507101551 13 213 4.8 20.9 0.00 0.00 0.00 91 1010.7
20260507100056 13 13 1.6 9.7 0.00 0.00 0.00 90 1011.4
20260507094548 13 242 0.0 12.9 0.00 0.00 0.00 90 1011.3
20260507093046 13 13 1.6 17.7 0.00 0.00 0.00 90 1011.7
20260507091545 13 118 6.4 25.7 0.00 0.00 0.00 90 1011.5
20260507090055 13 171 11.3 20.9 0.00 0.00 0.00 90 1011.6
20260507084550 13 182 9.7 24.1 0.00 0.00 0.00 90 1011.6
20260507083041 13 72 9.7 17.7 0.00 0.00 0.00 89 1011.3
20260507081638 13 198 6.4 17.7 0.00 0.00 0.00 90 1011.7
20260507080035 13 179 12.9 32.2 0.00 0.00 0.00 90 1011.9
20260507074533 14 141 14.5 22.5 0.00 0.00 0.00 90 1012.1
20260507073032 13 168 1.6 6.4 0.00 0.00 0.00 89 1012.3
20260507071534 13 82 1.6 6.4 0.00 0.00 0.00 88 1012.4
20260507070032 13 302 3.2 16.1 0.00 0.00 0.00 88 1012.6
20260507064535 13 118 0.0 6.4 0.00 0.00 0.00 85 1012.8
20260507063021 14 141 0.0 8.0 0.00 0.00 0.00 83 1013.1
20260507061520 14 268 6.4 25.7 0.00 0.00 0.00 83 1013.3
20260507060022 14 262 6.4 29.0 0.00 0.00 0.00 83 1013.4
20260507054517 14 323 11.3 27.4 0.00 0.00 0.00 82 1013.5
20260507053015 14 250 14.5 27.4 0.00 0.00 0.00 82 1013.7
20260507051512 14 303 17.7 38.6 0.00 0.00 0.00 81 1014.0
20260507050029 14 286 14.5 29.0 0.00 0.00 0.00 80 1014.3
20260507044506 14 263 9.7 19.3 0.00 0.00 0.00 79 1014.5